Regional Weather Roundup
Issued by NWS Wakefield, VA

Home | Current Version | Previous Version | Graphics & Text | Print | Product List | Glossary On
Versions: 1 2 3 4 5 6 7 8 9 10 11 12 13 14 15 16 17 18 19 20 21 22 23 24 25 26 27 28 29 30 31 32 33 34 35 36 37 38 39 40 41 42 43 44 45 46 47 48 49 50
000
ASUS41 KAKQ 301213
RWRAKQ

REGIONAL WEATHER ROUNDUP
NATIONAL WEATHER SERVICE WAKEFIELD VA
800 AM EDT MON MAR 30 2015

Note: "fair" indicates few or no clouds below 12,000 feet with no
significant weather and/or obstructions to visibility. * = Denotes
station may not report precipitation (e.g., rain,snow,etc.),
thunder or fog.

VAZ042-051-052>054-056-301300-
NORTHERN VIRGINIA

CITY           SKY/WX    TMP DP  RH WIND       PRES   REMARKS
WASH NATIONAL  CLOUDY    46  24  42 S12       29.93F
DULLES         CLOUDY    43  20  39 S8        29.91F
FORT BELVOIR   CLOUDY    46  24  43 VRB7      29.92F
QUANTICO       CLOUDY    46  23  40 SW12      29.95F
FREDERICKSBRG* CLOUDY    46  21  37 SW15      29.95S
STAFFORD*      CLOUDY    43  16  33 S7        29.98F
WARRENTON      CLOUDY    46  28  48 S9G16     29.91F
CULPEPER*      CLOUDY    46  21  36 S6        29.93S
MANASSAS*      CLOUDY    45  21  39 S6        29.93F
LEESBURG*      CLOUDY    43  25  49 SW7       29.92R
WINCHESTER     CLOUDY    45  10  24 SW5       29.88S
FRONT ROYAL*   CLOUDY    45  21  39 SW6       29.88R
LURAY*         CLOUDY    46  27  46 SW8       29.89S
$$

VAZ048-049-060>072-079>083-301300-
CENTRAL AND SOUTH CENTRAL VIRGINIA

CITY           SKY/WX    TMP DP  RH WIND       PRES   REMARKS
RICHMOND       LGT RAIN  43  27  53 S12       30.00R
CHESTERFIELD*  NOT AVBL
PETERSBURG*    CLOUDY    46  18  33 SW9       30.03S
HANOVER        LGT RAIN  44  25  47 S8        30.00R
TAPPAHANNOCK*  LGT RAIN  43  21  42 S8        30.00S
QUINTON*       CLOUDY    43  23  45 SW7       30.00F
CHARLOTTSVILLE CLOUDY    44  20  38 S13       29.92S
GORDONSVILLE*  PTSUNNY   44  22  40 SW9       29.93F
ORANGE*        CLOUDY    45  21  39 S9        29.95F
LOUISA*        CLOUDY    46  21  36 SW8       29.94S
BUMPASS*       CLOUDY    44  20  38 MISG      29.97R
FARMVILLE*     CLOUDY    46  24  40 SW12G17   29.98R
CREWE*         CLOUDY    46  18  32 MISG      30.00S
FORT PICKETT*  PTSUNNY   45  20  38 SW16      30.01S
CHASE CITY*    CLOUDY    46  26  46 CALM      30.02F
CLARKSVILLE*   CLOUDY    43  27  52 SW8       30.04R
SOUTH HILL*    CLOUDY    42  24  48 S9        30.09S
LAWRENCEVILLE* CLOUDY    43  25  48 SW9       30.04S
EMPORIA*       CLOUDY    43  27  52 S9        30.07F
$$

VAZ088>098-301300-
SOUTHEAST VIRGINIA

CITY           SKY/WX    TMP DP  RH WIND       PRES   REMARKS
NORFOLK        CLOUDY    43  22  43 SW18      30.05F
VIRGINIA BEACH PTSUNNY   45  25  45 SW15G24   30.06F
NORFOLK NAVAL  NOT AVBL
WEST POINT*    CLOUDY    46  20  35 S9        30.04S
SALUDA*        CLOUDY    42  23  47 SW9       30.01F
NEWPORT NEWS   LGT RAIN  47  25  42 SW18G29   30.04F
LANGLEY AFB    LGT RAIN  45  25  45 SW20G29   30.03F
FORT EUSTIS    CLOUDY    44  27  50 SW8       30.02S
WILLIAMSBURG*  CLOUDY    46  27  46 SW9       30.04S
HR EXEC AP*    CLOUDY    45  25  45 SW16G23   30.07F
FRANKLIN*      CLOUDY    43  27  52 SW14G21   30.06F
WAKEFIELD      NOT AVBL
$$

VAZ020-022-025-037-045-301300-
WEST CENTRAL AND SOUTHWEST VIRGINIA

CITY           SKY/WX    TMP DP  RH WIND       PRES   REMARKS
STAUNTON*      PTSUNNY   46  32  59 SW9       29.93S
WAYNESBORO*    PTSUNNY   43  31  63 SW3       29.92S
HOT SPRINGS VA HVY SNOW  35  35 100 W17G28    29.86S VSB<1/4 WCI  25
LYNCHBURG      CLOUDY    42  24  49 S8        29.98S
DANVILLE       CLOUDY    45  23  42 SW10      30.04F
SOUTH BOSTON*  CLOUDY    45  20  37 SW10G17   30.02F
MARTINSVILLE   CLOUDY    43  22  43 SW3       30.06R
ROANOKE        CLOUDY    47  34  60 CALM      30.00R
BLACKSBURG     CLOUDY    41  34  75 W5        30.01S
DUBLIN*        CLOUDY    43  37  81 SW8       30.01R
MARION*        CLOUDY    41  37  86 W18G25    30.02R
HILLSVILLE*    CLOUDY    40  38  90 SW9       30.00R
RICHLANDS*     LGT RAIN  40  24  51 W10G18    30.01S
WISE*          CLOUDY    43  43 100 W5        30.04R
ABINGDON*      CLOUDY    42  39  88 W7        30.05S
$$

MDZ021>025-VAZ099-100-301300-
SOUTHERN MARYLAND AND THE DELMARVA PENINSULA

CITY           SKY/WX    TMP DP  RH WIND       PRES   REMARKS
PATUXENT RIVER CLOUDY    42  24  49 S9        29.97F
BAY BRIDGE APT   N/A     41  25  52 S9G18     29.94F
LEONARDTOWN    CLOUDY    41  27  56 S7        29.98S
DOVER          LGT RAIN  37  37 100 S13       29.95F
GEORGETOWN     LGT RAIN  37  31  78 SW7       29.98F
EASTON         PTSUNNY   39  32  75 S9        30.00F
CAMBRIDGE      CLOUDY    41  32  70 S7        29.98S
SALISBURY      LGT RAIN  38  31  76 SW10G18   30.00F
OCEAN CITY     LGT RAIN  42  30  62 SW17G25   30.00F
WALLOPS ISLAND LGT RAIN  41  28  60 SW9       30.02F
ACCOMACK*      CLOUDY    43  21  42 SW13G20   30.04R
$$

NCZ012>017-030>032-301300-
NORTH CENTRAL AND EASTERN NORTH CAROLINA

CITY           SKY/WX    TMP DP  RH WIND       PRES   REMARKS
ROANOKE RAPIDS CLOUDY    43  30  61 SW12      30.08F
RALEIGH        CLOUDY    44  28  53 SW18      30.10R
ELIZABETH CITY CLOUDY    45  30  55 S16       30.12S
AHOSKIE*       CLOUDY    42  30  62 S6        30.09F
EDENTON*       CLOUDY    44  32  63 SW10      30.13S
CURRITUCK*     CLOUDY    45  28  51 SW12G20   30.11S
KILL DEVIL HLS CLOUDY    45  33  62 SW9       30.12S
MANTEO         PTSUNNY   45  33  65 SW14      30.14S
CAPE HATTERAS  SUNNY     51  31  46 SW13G24   30.16F
TARBORO*       CLOUDY    45  32  60 S10G16    30.12S
GOLDSBORO      CLOUDY    45  40  83 SW9G18    30.12S
WASHINGTON     CLOUDY    42  30  62 SW9       30.14F
GREENVILLE     CLOUDY    45  32  61 SW12G18   30.13F
NEW BERN       CLOUDY    45  31  58 SW12      30.17S
WILMINGTON     SUNNY     41  35  79 S5        30.17F
$$

VAZ048-301300-
ELSEWHERE

CITY           SKY/WX    TMP DP  RH WIND       PRES   REMARKS
HARRISBURG PA  CLOUDY    39  26  59 S5        29.87F
BALTIMORE      CLOUDY    40  26  57 CALM      29.91F
ANNAPOLIS      CLOUDY    41  26  55 S9        29.93F
ANDREWS AFB    CLOUDY    42  21  43 S12       29.91F
PHILADELPHIA   CLOUDY    36  31  82 S14       29.94F
HENDERSON NC   CLOUDY    43  23  45 SW14G22   30.05S
GREENSBORO     LGT RAIN  42  26  53 SW14      30.05R
ROCKY MOUNT    CLOUDY    45  31  58 S12       30.11S
$$

VAZ100-301300-
MARINE

STATION/POSITION TIME  TEMP    WIND        PRES    WAVE   SWELL
                       AIR SEA DIR/SP/G            HT/PER HT/PER
                 (UTC) (F)     (DEG/KT/KT) (MB)    (FT/S) (FT/S)
BRANDYWINE LGT   1100   39 39  240/ 25/ 28 1015.4F
CAPE MAY NJ      1100   42 42  230/ 22/ 26 1015.0F
LEWES DE         1100   40 41  230/ 10/ 15 1015.5F
15NM E FENWICK I 1150   42 40              1014.8F   5/ 5
OCEAN-CITY-INLET 1100   41 40  230/ 17/ 20 1016.1F
WACHAPREAGUE VA  1100   42 42  230/ 11/ 19 1016.8F
THOMAS POINT MD  1200                        N/A
COVE POINT MD    1100   42     210/ 18/ 24 1014.9F
SOLOMONS ISLAND  1100      43                N/A
BISHOPS HEAD MD  1118          200/ 11/ 13 1015.6
PINEY POINT MD   1106          200/ 13/ 14   N/A
CAMBRIDGE MD     1100   39 43  190/  5/  9 1015.3F
LEWISETTA VA     1100   44 42              1015.4F
RAPPAHANNOCK LGT 1100          190/ 17/ 19 1017.3F
STINGRAY PT      1200   44 43  230/ 14/ 16   N/A     2/ 3
YORK RVR RNG VA  1100   44     220/ 20/ 25 1015.8F
YORKTOWN VA      1100   44 45  210/ 12/ 15 1016.4F
DOMINION TERM VA 1100   44     210/ 17/ 20 1017.5F
KIPTOPEKE VA     1100      47  210/ 18/ 24   N/A
CHES BAY BRIDGE  1100   43 42  190/ 23/ 26 1016.9F
CAPE HENRY VA    1100   43     200/ 12/ 21 1016.3F
CHESAPEAKE LGHT  1100   43     210/ 24/ 25 1018.3F
WILLOUBY STN VA  1100   43     200/ 14/ 17 1018.1F
S CRANEY ISL VA  1100          200/ 10/ 16 1017.9F
CAPE HENRY BUOY  1128      40                N/A     4/ 4   2/11
1ST LANDING BUOY 1200   43     220/ 21/ 25 1016.8F   2/ 3
OFFSHORE WE BUOY 1111      41                N/A     4/10   3/10
64NM E OF VA BCH 1150   48 49  210/ 23/ 29 1018.6F   6/ 5   3/11
DUCK PIER NC     1100   45 42  200/ 16/ 21 1019.3F
44056 DUCK FRF   1111      42                N/A     3/10   2/11
OREGON INLET NC  1100   47 45  200/ 16/ 19 1020.7F
HATTERAS NC      1100   51 49  240/ 13/ 19 1022.2F
CAPE LOOKOUT NC  1200   54     220/ 12/ 18 1021.4F
$$


USA.gov is the U.S. government's official web portal to all federal, state and local government web resources and services.